EW1577 Weather Reports


time (UTC)temp
C
wind
direction
speed
KPH
gust
KPH
rain 1hr
cm
rain 24hr
cm
rain mn
cm
humidity
%
barometer
mb
20260508135527 11 301 1.6 3.2 0.00 0.00 0.00 64 1013.5
20260508134512 11 224 3.2 9.7 0.00 0.00 0.00 63 1013.6
20260508132503 11 331 1.6 6.4 0.00 0.00 0.00 64 1013.6
20260508131501 11 16 1.6 9.7 0.00 0.00 0.00 65 1013.4
20260508130501 10 259 4.8 6.4 0.00 0.00 0.00 67 1013.6
20260508125501 10 278 3.2 6.4 0.00 0.00 0.00 67 1013.7
20260508122501 9 324 1.6 6.4 0.00 0.00 0.00 71 1013.4
20260508121503 8 259 3.2 4.8 0.00 0.00 0.00 71 1013.4
20260508120502 8 243 3.2 9.7 0.00 0.00 0.00 72 1013.5
20260508115456 8 315 1.6 4.8 0.00 0.00 0.00 74 1013.5
20260508114456 7 309 0.0 3.2 0.00 0.00 0.00 76 1013.3
20260508113457 6 335 0.0 4.8 0.00 0.00 0.00 80 1013.3
20260508112456 5 343 0.0 1.6 0.00 0.00 0.00 87 1013.3
20260508111454 5 350 0.0 1.6 0.00 0.00 0.00 90 1013.1
20260508110450 5 344 0.0 1.6 0.00 0.00 0.00 91 1013.1
20260508105448 4 351 0.0 1.6 0.00 0.00 0.00 92 1013.1
20260508104441 4 351 0.0 1.6 0.00 0.00 0.00 92 1013.0
20260508103430 4 349 0.0 0.0 0.00 0.00 0.00 92 1012.9
20260508102429 4 344 0.0 1.6 0.00 0.00 0.00 92 1012.6
20260508095429 4 2 0.0 1.6 0.00 0.00 0.00 93 1012.8
20260508094429 4 355 0.0 1.6 0.00 0.00 0.00 93 1012.8
20260508092429 4 351 0.0 0.0 0.00 0.00 0.00 94 1012.7
20260508091429 4 357 0.0 1.6 0.00 0.00 0.00 94 1012.7
20260508090429 4 355 0.0 0.0 0.00 0.00 0.00 94 1012.8
20260508085429 5 348 0.0 0.0 0.00 0.00 0.00 94 1012.8
20260508083434 5 350 0.0 1.6 0.00 0.00 0.00 93 1012.7
20260508082420 5 344 0.0 0.0 0.00 0.00 0.00 93 1012.6
20260508081420 5 345 0.0 0.0 0.00 0.00 0.00 92 1012.7
20260508080413 5 354 0.0 0.0 0.00 0.00 0.00 92 1012.8
20260508075406 6 355 0.0 0.0 0.00 0.00 0.00 91 1012.7
20260508074401 6 350 0.0 0.0 0.00 0.00 0.00 91 1012.9
20260508073402 6 350 0.0 0.0 0.00 0.00 0.00 90 1012.8
20260508072402 6 344 0.0 0.0 0.00 0.00 0.00 89 1013.0
20260508071401 7 348 0.0 0.0 0.00 0.00 0.00 89 1013.3
20260508070401 7 348 0.0 0.0 0.00 0.00 0.00 89 1013.3
20260508065400 7 353 0.0 0.0 0.00 0.00 0.00 88 1013.3
20260508064400 7 351 0.0 1.6 0.00 0.00 0.00 88 1013.4
20260508063400 7 347 0.0 0.0 0.00 0.00 0.00 87 1013.6
20260508062401 7 344 0.0 1.6 0.00 0.00 0.00 85 1013.5
20260508061401 7 322 1.6 1.6 0.00 0.00 0.00 84 1013.5
20260508060358 7 351 0.0 0.0 0.00 0.00 0.00 84 1013.3
20260508055353 7 345 0.0 0.0 0.00 0.00 0.00 85 1013.1
20260508054339 7 348 0.0 0.0 0.00 0.00 0.00 86 1013.1
20260508053329 6 347 0.0 0.0 0.00 0.00 0.00 86 1013.0
20260508051329 6 349 0.0 0.0 0.00 0.00 0.00 88 1013.1
20260508045329 6 351 0.0 0.0 0.00 0.00 0.00 87 1013.3
20260508044329 6 352 0.0 0.0 0.00 0.00 0.00 87 1013.4
20260508043328 6 347 0.0 0.0 0.00 0.00 0.00 88 1013.4
20260508042330 6 352 0.0 0.0 0.00 0.00 0.00 89 1013.5
20260508041328 6 341 0.0 0.0 0.00 0.00 0.00 88 1013.5
20260508040318 6 350 0.0 0.0 0.00 0.00 0.00 87 1013.3
20260508035318 6 352 0.0 0.0 0.00 0.00 0.00 87 1013.1
20260508034316 6 349 0.0 0.0 0.00 0.00 0.00 86 1013.2
20260508033318 6 352 0.0 0.0 0.00 0.00 0.00 87 1013.2
20260508032307 5 349 0.0 0.0 0.00 0.00 0.00 86 1013.4
20260508031301 5 355 0.0 0.0 0.00 0.00 0.00 87 1013.3
20260508030300 5 352 0.0 0.0 0.00 0.00 0.00 87 1013.2
20260508024301 5 354 0.0 0.0 0.00 0.00 0.00 85 1013.5
20260508022301 6 343 0.0 0.0 0.00 0.00 0.00 84 1013.3
20260508021301 6 351 0.0 0.0 0.00 0.00 0.00 83 1013.4
20260508015301 6 345 0.0 0.0 0.00 0.00 0.00 80 1013.2
20260508014301 7 351 0.0 0.0 0.00 0.00 0.00 78 1013.2
20260508013301 7 348 0.0 0.0 0.00 0.00 0.00 76 1013.3
20260508012251 7 351 0.0 0.0 0.00 0.00 0.00 74 1013.1
20260508011240 8 346 0.0 0.0 0.00 0.00 0.00 70 1013.0
20260508010237 8 345 0.0 0.0 0.00 0.00 0.00 66 1013.0
20260508005230 9 351 0.0 0.0 0.00 0.00 0.00 63 1012.7
20260508004229 10 349 0.0 0.0 0.00 0.00 0.00 59 1012.9
20260508003220 10 347 0.0 0.0 0.00 0.00 0.00 56 1012.8
20260508002216 11 349 0.0 0.0 0.00 0.00 0.00 51 1012.7
20260508001209 12 345 0.0 1.6 0.00 0.00 0.00 48 1012.3
20260508000155 12 347 0.0 1.6 0.00 0.00 0.00 42 1012.5
20260507235151 13 341 0.0 4.8 0.00 0.00 0.00 43 1012.5
20260507234151 13 356 0.0 4.8 0.00 0.00 0.00 42 1012.5
20260507233151 13 196 1.6 6.4 0.00 0.00 0.00 40 1012.4
20260507232143 13 323 3.2 11.3 0.00 0.00 0.00 40 1012.5
20260507231144 13 349 0.0 11.3 0.00 0.00 0.00 41 1012.3
20260507230139 14 339 0.0 3.2 0.00 0.00 0.00 40 1012.5
20260507225142 14 353 3.2 4.8 0.00 0.00 0.00 42 1012.6
20260507223140 15 353 1.6 6.4 0.00 0.00 0.00 40 1012.4
20260507222135 15 284 1.6 6.4 0.00 0.00 0.00 36 1012.6
20260507221128 14 63 3.2 6.4 0.00 0.00 0.00 37 1012.6
20260507215129 13 334 1.6 16.1 0.00 0.00 0.00 38 1012.6
20260507214129 15 337 3.2 14.5 0.00 0.00 0.00 35 1012.4
20260507212124 15 339 1.6 6.4 0.00 0.00 0.00 43 1012.1
20260507211118 14 17 1.6 6.4 0.00 0.00 0.00 42 1012.3
20260507205116 15 308 1.6 16.1 0.00 0.00 0.00 40 1012.2
20260507204113 14 44 0.0 9.7 0.00 0.00 0.00 41 1012.2
20260507203113 15 328 3.2 12.9 0.00 0.00 0.00 38 1011.9
20260507201115 16 351 1.6 17.7 0.00 0.00 0.00 40 1012.3
20260507195101 15 288 6.4 11.3 0.00 0.00 0.00 40 1012.2
20260507194104 15 345 3.2 12.9 0.00 0.00 0.00 42 1012.4
20260507193101 15 188 4.8 12.9 0.00 0.00 0.00 41 1012.4
20260507192102 16 228 1.6 9.7 0.00 0.00 0.00 41 1012.3
20260507191101 16 118 1.6 16.1 0.00 0.00 0.00 40 1012.2
20260507190100 17 25 1.6 9.7 0.00 0.00 0.00 42 1012.2
20260507185100 16 96 1.6 9.7 0.00 0.00 0.00 43 1012.5
20260507184054 15 22 6.4 14.5 0.00 0.00 0.00 41 1012.5
20260507183051 15 311 6.4 14.5 0.00 0.00 0.00 38 1012.6
20260507182051 15 27 1.6 6.4 0.00 0.00 0.00 45 1012.3
20260507181048 15 355 6.4 14.5 0.00 0.00 0.00 41 1012.5
20260507175046 14 236 3.2 20.9 0.00 0.00 0.00 43 1012.6
20260507174041 14 29 12.9 14.5 0.00 0.00 0.00 42 1012.7
20260507173043 14 9 3.2 12.9 0.00 0.00 0.00 44 1012.8
20260507172035 14 282 3.2 12.9 0.00 0.00 0.00 43 1013.2
20260507171037 14 38 3.2 11.3 0.00 0.00 0.00 41 1013.1
20260507170034 13 357 3.2 9.7 0.00 0.00 0.00 41 1013.2
20260507165031 13 330 6.4 16.1 0.00 0.00 0.00 40 1013.3
20260507164025 14 337 1.6 9.7 0.00 0.00 0.00 43 1013.4
20260507163030 14 25 3.2 9.7 0.00 0.00 0.00 43 1013.4
20260507162022 13 333 0.0 11.3 0.00 0.00 0.00 45 1013.3
20260507161023 13 112 1.6 17.7 0.00 0.00 0.00 41 1013.5
20260507160027 13 48 1.6 11.3 0.00 0.00 0.00 46 1013.3
20260507155017 13 42 1.6 11.3 0.00 0.00 0.00 45 1013.4
20260507154016 13 248 4.8 12.9 0.00 0.00 0.00 43 1013.3
20260507153007 12 171 1.6 12.9 0.00 0.00 0.00 44 1013.1
20260507152009 12 139 3.2 9.7 0.00 0.00 0.00 43 1013.1
20260507151004 12 152 3.2 6.4 0.00 0.00 0.00 45 1012.9
20260507150013 12 21 1.6 6.4 0.00 0.00 0.00 46 1013.1
20260507145004 11 7 0.0 12.9 0.00 0.00 0.00 47 1013.2
20260507144007 11 21 3.2 9.7 0.00 0.00 0.00 50 1013.2
20260507143001 11 253 4.8 9.7 0.00 0.00 0.00 49 1013.3
20260507140952 10 19 0.0 6.4 0.00 0.00 0.00 56 1013.1
20260507135947 10 324 1.6 4.8 0.00 0.00 0.00 58 1013.4